• In Moldova, Republic
  • List of Countries
  • For 7 days
  • Water Temperature
  • Satellite Maps
  • Weather Map
  • Weather Widgets
  • user-avatar
    Login

    Hourly Weather Kerns

    Today, 26 February, Sunday

    Time Temperature Precipitation Wind Pressure Humidity
    00:00 +26°C° 0.1 mm 3 mps 756 mmHg 96%
    01:00 +26°C° 0.1 mm 3 mps 756 mmHg 97%
    02:00 +26°C° 0.2 mm 3 mps 756 mmHg 96%
    03:00 +26°C° 0.2 mm 3 mps 756 mmHg 96%
    04:00 +26°C° 0 mm 3 mps 756 mmHg 96%
    05:00 +26°C° 0.1 mm 3 mps 756 mmHg 95%
    06:00 +26°C° 0.1 mm 4 mps 756 mmHg 94%
    07:00 +26°C° 0.1 mm 4 mps 756 mmHg 93%
    08:00 +28°C° 0 mm 4 mps 756 mmHg 83%
    09:00 +30°C° 0 mm 4 mps 756 mmHg 73%
    10:00 +32°C° 0 mm 5 mps 757 mmHg 64%
    11:00 +33°C° 0 mm 5 mps 756 mmHg 60%
    12:00 +34°C° 0 mm 5 mps 756 mmHg 57%
    13:00 +35°C° 0 mm 5 mps 756 mmHg 53%
    14:00 +35°C° 0.1 mm 5 mps 756 mmHg 56%
    15:00 +34°C° 0.1 mm 5 mps 755 mmHg 58%
    16:00 +34°C° 0.1 mm 5 mps 755 mmHg 61%
    17:00 +32°C° 0 mm 5 mps 756 mmHg 69%
    18:00 +29°C° 0 mm 5 mps 756 mmHg 78%
    19:00 +27°C° 0 mm 4 mps 756 mmHg 86%
    20:00 +27°C° 0.2 mm 4 mps 757 mmHg 89%
    21:00 +26°C° 0.2 mm 4 mps 757 mmHg 93%
    22:00 +25°C° 0.2 mm 4 mps 757 mmHg 96%
    23:00 +25°C° 0.6 mm 4 mps 757 mmHg 96%

    Tomorrow, 27 February, Monday

    Time Temperature Precipitation Wind Pressure Humidity
    00:00 +25°C° 0.6 mm 4 mps 757 mmHg 96%
    01:00 +25°C° 0.6 mm 4 mps 757 mmHg 96%
    02:00 +25°C° 0.4 mm 4 mps 756 mmHg 95%
    03:00 +25°C° 0.4 mm 5 mps 756 mmHg 94%
    04:00 +26°C° 0.4 mm 5 mps 756 mmHg 93%
    05:00 +26°C° 0.3 mm 5 mps 756 mmHg 92%
    06:00 +26°C° 0.3 mm 5 mps 757 mmHg 91%
    07:00 +26°C° 0.3 mm 5 mps 757 mmHg 90%
    08:00 +28°C° 0.2 mm 5 mps 757 mmHg 83%
    09:00 +29°C° 0.2 mm 5 mps 758 mmHg 75%
    10:00 +32°C° 0.2 mm 5 mps 758 mmHg 68%
    11:00 +33°C° 0.2 mm 5 mps 757 mmHg 63%
    12:00 +34°C° 0.2 mm 5 mps 757 mmHg 58%
    13:00 +35°C° 0.2 mm 6 mps 756 mmHg 54%
    14:00 +35°C° 0.1 mm 6 mps 756 mmHg 54%
    15:00 +34°C° 0.1 mm 6 mps 756 mmHg 55%
    16:00 +34°C° 0.1 mm 6 mps 755 mmHg 56%
    17:00 +32°C° 0.1 mm 6 mps 756 mmHg 66%
    18:00 +29°C° 0.1 mm 5 mps 756 mmHg 75%
    19:00 +27°C° 0.1 mm 5 mps 757 mmHg 85%
    20:00 +26°C° 0.1 mm 5 mps 757 mmHg 88%
    21:00 +26°C° 0.1 mm 5 mps 758 mmHg 92%
    22:00 +25°C° 0.1 mm 5 mps 758 mmHg 95%
    23:00 +25°C° 0.1 mm 4 mps 758 mmHg 95%

    Day after tomorrow, 28 February, Tuesday

    Time Temperature Precipitation Wind Pressure Humidity
    00:00 +25°C° 0.1 mm 4 mps 758 mmHg 94%
    01:00 +25°C° 0.1 mm 4 mps 757 mmHg 93%
    02:00 +25°C° 0.1 mm 4 mps 757 mmHg 93%
    03:00 +25°C° 0.1 mm 4 mps 757 mmHg 93%
    04:00 +25°C° 0.1 mm 4 mps 756 mmHg 92%
    05:00 +25°C° 0 mm 4 mps 757 mmHg 93%
    06:00 +25°C° 0 mm 4 mps 757 mmHg 93%
    07:00 +25°C° 0 mm 4 mps 758 mmHg 93%
    08:00 +27°C° 0.1 mm 5 mps 758 mmHg 84%
    09:00 +29°C° 0.1 mm 5 mps 758 mmHg 75%
    10:00 +32°C° 0.1 mm 5 mps 758 mmHg 66%
    11:00 +33°C° 0 mm 5 mps 758 mmHg 61%
    12:00 +34°C° 0 mm 6 mps 757 mmHg 57%
    13:00 +35°C° 0 mm 6 mps 757 mmHg 52%
    14:00 +34°C° 0 mm 6 mps 756 mmHg 54%
    15:00 +34°C° 0 mm 6 mps 756 mmHg 55%
    16:00 +34°C° 0 mm 6 mps 755 mmHg 57%
    17:00 +32°C° 0 mm 5 mps 756 mmHg 66%
    18:00 +29°C° 0 mm 5 mps 756 mmHg 75%
    19:00 +27°C° 0 mm 5 mps 757 mmHg 84%
    20:00 +27°C° 0 mm 5 mps 757 mmHg 88%
    21:00 +26°C° 0 mm 5 mps 758 mmHg 92%
    22:00 +25°C° 0 mm 4 mps 758 mmHg 95%
    23:00 +25°C° 0.1 mm 4 mps 758 mmHg 95%

    1 March, Wednesday

    Time Temperature Precipitation Wind Pressure Humidity
    00:00 +25°C° 0.1 mm 4 mps 758 mmHg 96%
    01:00 +25°C° 0.1 mm 4 mps 757 mmHg 96%
    02:00 +25°C° 0 mm 4 mps 757 mmHg 96%
    03:00 +25°C° 0 mm 4 mps 756 mmHg 96%
    04:00 +23°C° 0 mm 4 mps 756 mmHg 96%
    05:00 +25°C° 0 mm 4 mps 757 mmHg 96%
    06:00 +25°C° 0 mm 4 mps 757 mmHg 95%
    07:00 +25°C° 0 mm 4 mps 758 mmHg 94%
    08:00 +27°C° 0 mm 5 mps 758 mmHg 83%
    09:00 +29°C° 0 mm 5 mps 758 mmHg 73%
    10:00 +33°C° 0 mm 6 mps 758 mmHg 62%
    11:00 +34°C° 0 mm 6 mps 757 mmHg 58%
    12:00 +34°C° 0 mm 6 mps 757 mmHg 54%
    13:00 +35°C° 0 mm 6 mps 756 mmHg 51%
    14:00 +35°C° 0 mm 6 mps 756 mmHg 52%
    15:00 +35°C° 0 mm 6 mps 755 mmHg 53%
    16:00 +35°C° 0 mm 6 mps 755 mmHg 55%
    17:00 +33°C° 0 mm 5 mps 755 mmHg 65%
    18:00 +30°C° 0 mm 5 mps 756 mmHg 75%
    19:00 +28°C° 0 mm 5 mps 756 mmHg 85%
    20:00 +27°C° 0.2 mm 4 mps 757 mmHg 89%
    21:00 +26°C° 0.2 mm 4 mps 757 mmHg 92%
    22:00 +26°C° 0.2 mm 4 mps 757 mmHg 96%
    23:00 +26°C° 0.2 mm 4 mps 757 mmHg 95%

    2 March, Thursday

    Time Temperature Precipitation Wind Pressure Humidity
    00:00 +26°C° 0.2 mm 4 mps 757 mmHg 95%
    01:00 +26°C° 0.2 mm 4 mps 756 mmHg 95%
    02:00 +26°C° 0.2 mm 4 mps 756 mmHg 95%
    03:00 +26°C° 0.2 mm 4 mps 756 mmHg 95%
    04:00 +26°C° 0.2 mm 4 mps 755 mmHg 95%
    05:00 +26°C° 0.4 mm 4 mps 756 mmHg 94%
    06:00 +26°C° 0.4 mm 4 mps 756 mmHg 93%
    07:00 +26°C° 0.4 mm 4 mps 756 mmHg 92%
    08:00 +27°C° 0.4 mm 4 mps 757 mmHg 88%
    09:00 +28°C° 0.4 mm 4 mps 757 mmHg 84%
    10:00 +29°C° 0.4 mm 5 mps 757 mmHg 79%
    11:00 +30°C° 0.6 mm 5 mps 756 mmHg 76%
    12:00 +30°C° 0.6 mm 5 mps 756 mmHg 74%
    13:00 +32°C° 0.6 mm 5 mps 756 mmHg 71%
    14:00 +32°C° 0.3 mm 5 mps 755 mmHg 71%
    15:00 +32°C° 0.3 mm 5 mps 755 mmHg 71%
    16:00 +32°C° 0.3 mm 5 mps 755 mmHg 72%
    17:00 +30°C° 0.1 mm 5 mps 755 mmHg 77%
    18:00 +28°C° 0.1 mm 4 mps 756 mmHg 83%
    19:00 +27°C° 0.1 mm 4 mps 756 mmHg 89%
    20:00 +27°C° 0.6 mm 4 mps 756 mmHg 91%
    21:00 +26°C° 0.6 mm 4 mps 757 mmHg 93%
    22:00 +26°C° 0.6 mm 4 mps 757 mmHg 96%
    23:00 +26°C° 0.6 mm 3 mps 757 mmHg 95%

    3 March, Friday

    Time Temperature Precipitation Wind Pressure Humidity
    00:00 +26°C° 0.6 mm 3 mps 756 mmHg 95%
    01:00 +26°C° 0.6 mm 3 mps 756 mmHg 95%
    02:00 +26°C° 0.2 mm 3 mps 756 mmHg 96%
    03:00 +26°C° 0.2 mm 2 mps 756 mmHg 96%
    04:00 +26°C° 0.2 mm 2 mps 755 mmHg 96%
    05:00 +26°C° 0.1 mm 2 mps 756 mmHg 96%
    06:00 +26°C° 0.1 mm 2 mps 756 mmHg 96%
    07:00 +27°C° 0.1 mm 2 mps 756 mmHg 96%
    08:00 +28°C° 0 mm 3 mps 757 mmHg 91%
    09:00 +29°C° 0 mm 3 mps 757 mmHg 85%
    10:00 +30°C° 0 mm 3 mps 757 mmHg 80%
    11:00 +31°C° 0.1 mm 3 mps 756 mmHg 76%
    12:00 +33°C° 0.1 mm 3 mps 756 mmHg 72%
    13:00 +33°C° 0.1 mm 4 mps 755 mmHg 68%
    14:00 +33°C° 0.1 mm 4 mps 755 mmHg 69%
    15:00 +33°C° 0.1 mm 4 mps 755 mmHg 70%
    16:00 +33°C° 0.1 mm 4 mps 755 mmHg 71%
    17:00 +30°C° 0 mm 4 mps 755 mmHg 76%
    18:00 +29°C° 0 mm 4 mps 755 mmHg 82%
    19:00 +28°C° 0 mm 4 mps 756 mmHg 88%
    20:00 +27°C° 0 mm 3 mps 756 mmHg 91%
    21:00 +27°C° 0 mm 3 mps 757 mmHg 94%
    22:00 +26°C° 0 mm 3 mps 757 mmHg 96%
    23:00 +26°C° 0.2 mm 3 mps 757 mmHg 96%
    Show more